Weather History for KPTS - January, 2012

Change the Weather History Date:

Saturday, January 14, 2012

  Actual Average (KJLN) Record (KJLN)
Temperature  
Mean Temperature 37 °F 35 °F  
Max Temperature 47 °F 45 °F 71 °F (1996)
Min Temperature 27 °F 25 °F -7 °F (1979)
Degree Days  
Heating Degree Days 28 30  
Month to date heating degree days 420  
Since 1 July heating degree days 2037  
Cooling Degree Days 0 0  
Month to date cooling degree days 0  
Year to date cooling degree days 0  
Moisture  
Dew Point 26 °F    
Average Humidity 61    
Maximum Humidity 69    
Minimum Humidity 51    
Precipitation  
Precipitation 0.00 in 0.06 in 0.44 in (2007)
Month to date precipitation 0.94  
Year to date precipitation 0.94  
Sea Level Pressure  
Sea Level Pressure 30.10 in    
Wind  
Wind Speed 10 mph (WNW)    
Max Wind Speed 21 mph    
Max Gust Speed 29 mph    
Visibility 10 miles    
Events      
T = Trace of Precipitation, MM = Missing Value Source: NWS Daily Summary

Daily Weather History Graph

Daily Weather History Graph

Search for Another Location

Airport or City:

Trip Planner

Search our weather history database for the weather conditions in past years. The results will help you decide how hot, cold, wet, or windy it might be!

Date:

Astronomy

Jan. 14, 2012 Rise Set
Actual Time 7:32 AM CST 5:23 PM CST
Civil Twilight 7:04 AM CST 5:51 PM CST
Nautical Twilight 6:31 AM CST 6:24 PM CST
Astronomical Twilight 6:00 AM CST 6:55 PM CST
Moon 11:35 PM CST (1/14) 10:26 AM CST (1/14)
Length of Visible Light 10h 47m
Length of Day
9h 50m
Waning Gibbous, 68% of the Moon is Illuminated
Jan 14
Waning Gibbous
Jan 16
Last Quarter
Jan 23
New
Jan 30
First Quarter
Feb 7
Full

Hourly Weather History & Observations

Time (CST) Temp. Windchill Dew Point Humidity Pressure Visibility Wind Dir Wind Speed Gust Speed Precip Events Conditions
12:15 AM 27.5 °F 20.2 °F 18.3 °F 68% 30.04 in 10.0 mi SSW 6.9 mph - N/A   Clear
12:35 AM 29.7 °F 22.8 °F 19.8 °F 67% 30.03 in 10.0 mi SSW 6.9 mph - N/A   Clear
12:55 AM 30.2 °F 21.9 °F 20.1 °F 66% 30.01 in 10.0 mi SSW 9.2 mph - N/A   Clear
1:15 AM 30.6 °F 22.4 °F 19.8 °F 64% 30.00 in 10.0 mi SSW 9.2 mph - N/A   Clear
1:35 AM 32.0 °F 23.6 °F 20.8 °F 63% 30.00 in 10.0 mi SSW 10.4 mph - N/A   Clear
1:55 AM 32.4 °F 24.6 °F 21.6 °F 64% 30.00 in 10.0 mi SSW 9.2 mph - N/A   Clear
2:15 AM 32.4 °F 24.6 °F 21.6 °F 64% 29.99 in 10.0 mi SSW 9.2 mph - N/A   Clear
2:35 AM 33.4 °F 24.8 °F 22.3 °F 64% 29.99 in 10.0 mi SW 11.5 mph - N/A   Clear
2:55 AM 34.9 °F 27.1 °F 23.4 °F 63% 29.98 in 10.0 mi SW 10.4 mph - N/A   Clear
3:15 AM 34.9 °F 26.6 °F 23.9 °F 64% 29.97 in 10.0 mi SW 11.5 mph - N/A   Clear
3:35 AM 34.9 °F 27.7 °F 24.1 °F 65% 29.97 in 10.0 mi SW 9.2 mph - N/A   Clear
3:55 AM 34.9 °F 26.6 °F 24.6 °F 66% 29.97 in 10.0 mi SW 11.5 mph - N/A   Clear
4:15 AM 34.9 °F 26.6 °F 25.0 °F 67% 29.97 in 10.0 mi WSW 11.5 mph - N/A   Clear
4:35 AM 34.9 °F 26.6 °F 25.5 °F 69% 29.98 in 10.0 mi WSW 11.5 mph - N/A   Clear
4:55 AM 34.9 °F 26.6 °F 25.5 °F 69% 29.97 in 10.0 mi WSW 11.5 mph - N/A   Clear
5:15 AM 34.9 °F 27.1 °F 24.4 °F 66% 29.98 in 10.0 mi West 10.4 mph - N/A   Clear
5:35 AM 34.9 °F 27.7 °F 24.6 °F 66% 29.99 in 10.0 mi West 9.2 mph - N/A   Clear
5:55 AM 34.9 °F 27.1 °F 24.8 °F 67% 30.00 in 10.0 mi West 10.4 mph - N/A   Clear
6:15 AM 34.5 °F 27.9 °F 24.8 °F 68% 30.01 in 10.0 mi West 8.1 mph - N/A   Clear
6:35 AM 33.1 °F 26.1 °F 23.4 °F 67% 30.02 in 10.0 mi West 8.1 mph - N/A   Clear
6:55 AM 32.4 °F 26.9 °F 22.6 °F 67% 30.02 in 10.0 mi West 5.8 mph - N/A   Clear
7:35 AM 34.9 °F 29.0 °F 23.7 °F 64% 30.03 in 10.0 mi WNW 6.9 mph - N/A   Clear
8:15 AM 34.9 °F 29.9 °F 23.7 °F 64% 30.06 in 10.0 mi WNW 5.8 mph - N/A   Clear
8:35 AM 35.1 °F 28.6 °F 23.7 °F 63% 30.07 in 10.0 mi WNW 8.1 mph - N/A   Clear
8:55 AM 37.8 °F 30.2 °F 25.2 °F 60% 30.08 in 10.0 mi NW 11.5 mph 20.7 mph N/A   Clear
9:15 AM 40.1 °F 32.7 °F 26.6 °F 59% 30.10 in 10.0 mi NW 12.7 mph 23.0 mph N/A   Clear
9:35 AM 40.1 °F 31.3 °F 26.6 °F 59% 30.12 in 10.0 mi NW 17.3 mph 28.8 mph N/A   Clear
9:55 AM 40.3 °F 32.2 °F 27.1 °F 59% 30.13 in 10.0 mi NW 15.0 mph 21.9 mph N/A   Clear
10:15 AM 41.2 °F 32.7 °F 28.0 °F 60% 30.15 in 10.0 mi NNW 17.3 mph 25.3 mph N/A   Clear
10:35 AM 41.4 °F 32.1 °F 28.2 °F 60% 30.16 in 10.0 mi NNW 20.7 mph 28.8 mph N/A   Clear
10:55 AM 42.1 °F 34.9 °F 28.9 °F 60% 30.17 in 10.0 mi NW 13.8 mph 25.3 mph N/A   Clear
11:15 AM 42.4 °F 35.0 °F 29.1 °F 59% 30.17 in 10.0 mi NNW 15.0 mph 26.5 mph N/A   Clear
11:35 AM 42.6 °F 35.2 °F 29.3 °F 59% 30.18 in 10.0 mi NNW 15.0 mph 26.5 mph N/A   Clear
11:55 AM 43.2 °F 35.3 °F 29.8 °F 59% 30.18 in 10.0 mi NNW 17.3 mph 21.9 mph N/A   Clear
12:15 PM 43.5 °F 36.4 °F 29.8 °F 59% 30.19 in 10.0 mi NW 15.0 mph 20.7 mph N/A   Clear
12:35 PM 43.7 °F 36.6 °F 29.5 °F 57% 30.19 in 10.0 mi NW 15.0 mph 24.2 mph N/A   Clear
12:55 PM 43.9 °F 36.5 °F 29.5 °F 57% 30.19 in 10.0 mi NNW 16.1 mph 24.2 mph N/A   Clear
1:15 PM 44.6 °F 37.4 °F 29.7 °F 56% 30.19 in 10.0 mi NNW 16.1 mph 23.0 mph N/A   Clear
1:35 PM 46.2 °F 39.5 °F 30.7 °F 55% 30.18 in 10.0 mi NW 16.1 mph 20.7 mph N/A   Clear
1:55 PM 47.5 °F - 31.3 °F 53% 30.18 in 10.0 mi NW 8.1 mph 17.3 mph N/A   Scattered Clouds
2:15 PM 47.5 °F - 30.6 °F 52% 30.18 in 10.0 mi NNW 10.4 mph 19.6 mph N/A   Scattered Clouds
2:35 PM 47.5 °F - 30.2 °F 51% 30.18 in 10.0 mi NNW 8.1 mph 19.6 mph N/A   Clear
2:55 PM 47.5 °F - 30.2 °F 51% 30.19 in 10.0 mi NNW 11.5 mph 18.4 mph N/A   Clear
3:15 PM 47.5 °F - 30.4 °F 52% 30.19 in 10.0 mi NNW 15.0 mph - N/A   Clear
3:35 PM 47.5 °F - 30.0 °F 51% 30.20 in 10.0 mi NNW 10.4 mph - N/A   Clear
3:55 PM 47.5 °F - 30.0 °F 51% 30.21 in 10.0 mi NNW 5.8 mph - N/A   Clear
4:15 PM 47.1 °F - 29.8 °F 51% 30.21 in 10.0 mi NW 5.8 mph - N/A   Clear
4:35 PM 45.3 °F 43.0 °F 28.8 °F 52% 30.21 in 10.0 mi NW 4.6 mph - N/A   Clear
4:55 PM 44.2 °F 41.0 °F 28.2 °F 53% 30.22 in 10.0 mi NNW 5.8 mph - N/A   Clear
5:15 PM 42.8 °F 41.1 °F 28.0 °F 56% 30.22 in 10.0 mi NNW 3.5 mph - N/A   Clear
5:35 PM 41.2 °F - 27.3 °F 58% 30.22 in 10.0 mi Calm Calm - N/A   Clear
5:55 PM 39.6 °F - 27.1 °F 61% 30.23 in 10.0 mi Calm Calm - N/A   Clear
6:15 PM 37.4 °F - 26.8 °F 66% 30.23 in 10.0 mi Calm Calm - N/A   Clear
6:35 PM 35.1 °F - 25.9 °F 69% 30.24 in 10.0 mi Calm Calm - N/A   Clear
6:55 PM 34.5 °F - 27.0 °F 74% 30.24 in 10.0 mi Calm Calm - N/A   Clear
7:15 PM 31.1 °F - 25.3 °F 79% 30.25 in 10.0 mi Calm Calm - N/A   Clear
7:35 PM 30.4 °F - 25.2 °F 81% 30.25 in 10.0 mi Calm Calm - N/A   Clear
7:55 PM 30.2 °F - 25.3 °F 82% 30.26 in 10.0 mi Calm Calm - N/A   Clear
8:15 PM 29.7 °F - 25.9 °F 86% 30.26 in 10.0 mi Calm Calm - N/A   Clear
8:55 PM 29.1 °F - 25.2 °F 85% 30.26 in 10.0 mi Calm Calm - N/A   Clear
9:15 PM 29.1 °F - 25.9 °F 88% 30.26 in 10.0 mi Calm Calm - N/A   Clear
9:35 PM 27.7 °F - 24.8 °F 89% 30.26 in 10.0 mi Calm Calm - N/A   Clear
9:55 PM 28.4 °F - 26.2 °F 92% 30.26 in 10.0 mi Calm Calm - N/A   Clear
10:15 PM 27.0 °F - 24.1 °F 89% 30.26 in 10.0 mi Calm Calm - N/A   Clear
10:55 PM 25.5 °F - 23.9 °F 94% 30.25 in 10.0 mi Calm Calm - N/A   Clear
11:15 PM 25.3 °F - 24.4 °F 96% 30.25 in 10.0 mi Calm Calm - N/A   Clear
11:35 PM 24.3 °F - 23.4 °F 96% 30.24 in 10.0 mi Calm Calm - N/A   Clear
11:55 PM 23.2 °F 18.7 °F 23.0 °F 99% 30.24 in 10.0 mi South 3.5 mph - N/A   Clear